Regional Weather Roundup
Issued by NWS

Home | Current Version | Previous Version | Graphics & Text | Print | Product List | Glossary On
Versions: 1 2 3 4 5 6 7 8 9 10 11 12 13 14 15 16 17 18 19 20 21 22 23 24 25 26 27 28 29 30 31 32 33 34 35 36 37 38 39 40 41 42 43 44 45 46 47 48 49 50
000
ASUS43 KLOT 050508
RWRIL

ILLINOIS REGIONAL WEATHER ROUNDUP
NATIONAL WEATHER SERVICE CHICAGO/ROMEOVILLE IL
1200 AM CDT SUN JUL 05 2015

NOTE: "FAIR" INDICATES FEW OR NO CLOUDS BELOW 12,000 FEET WITH NO
SIGNIFICANT WEATHER AND/OR OBSTRUCTIONS TO VISIBILITY.

* THESE STATIONS ARE NOT UNDER NWS QUALITY CONTROL. THEY ALSO MAY NOT
  REPORT WEATHER SUCH AS PRECIPITATION OR FOG.

ILZ001-002-007-009-015-016-024-050600-
NORTHWEST ILLINOIS

CITY           SKY/WX    TMP DP  RH WIND       PRES   REMARKS
MOLINE         CLEAR     65  60  84 CALM      30.02R
STERLING*      CLEAR     63  61  94 CALM      30.03S
SAVANNA*       CLEAR     64  61  90 CALM      30.02R
$$

ILZ003-004-008-010-011-017-018-050600-
NORTH CENTRAL ILLINOIS

CITY           SKY/WX    TMP DP  RH WIND       PRES   REMARKS
ROCKFORD       PTCLDY    67  60  78 CALM      30.04R
FREEPORT*      CLEAR     62  59  90 S6        30.04S
ROCHELLE*      CLEAR     62  60  94 CALM      30.04S
DE KALB*       CLEAR     62  58  88 S5        30.04S
PERU*          CLEAR     68  60  76 S3        30.03F
$$

ILZ005-006-012>014-019>023-050600-
NORTHEAST ILLINOIS

CITY           SKY/WX    TMP DP  RH WIND       PRES   REMARKS
CHICAGO-OHARE  PTCLDY    67  57  70 CALM      30.03S SMOKE
CHICAGO-MIDWAY PTCLDY    72  58  61 CALM      30.03S SMOKE
AURORA         CLEAR     65  59  81 CALM      30.03F
LANSING*       CLEAR     65  59  82 CALM      30.04S HAZE
JOLIET*        CLEAR     64  62  93 CALM      30.03S FOG
WAUKEGAN       CLEAR     60  55  83 CALM      30.03S HAZE
DUPAGE AIRPORT CLEAR     66  60  81 CALM      30.03S
KANKAKEE*      CLEAR     66  64  94 CALM      30.04F
WHEELING       CLEAR     66  56  70 CALM      30.04F HAZE
MORRIS*        CLEAR     67  61  81 CALM      30.01R
ROMEOVILLE*    CLEAR     65  58  77 CALM      30.04S HAZE
NORTHERLY ISL    N/A     65  60  84 CALM        N/A
$$

LMZ740>746-050600-
SOUTHERN LAKE MICHIGAN

STATION/POSITION SKY/WX   TEMP    WIND        PRES    VSBY  WAVE
                          AIR SEA DIR/SP/G                  HT/PER
                          (F)     (DEG/KT/KT) (MB)    (MI)  (FT/S)
HARRISON CRIB              68     170/  5/  6   N/A
BURNHAM HARBOR             65      CALM  /  1   N/A
CALUMET HARBOR             68      50/  1/  2   N/A
BURNS HARBOR               73     150/  6/  9 1017.6R
MICHIGAN CITY              70     110/  6/  7   N/A
MICHIGAN CITY 6N           65 64  110/  4/  4   N/A           0
ST. JOSEPH                 66 65                N/A           0
$$

ILZ025>027-034>036-040-047-049-050-058-095>099-050600-
WEST-CENTRAL ILLINOIS

CITY           SKY/WX    TMP DP  RH WIND       PRES   REMARKS
QUINCY         CLEAR     69  64  84 SE6       30.03R
GALESBURG*     CLEAR     64  61  90 SE3       30.03S
MACOMB*        CLEAR     63  62  97 CALM      30.05S
JACKSONVILLE*  CLEAR     67  65  91 CALM      30.03S
PITTSFIELD*    CLEAR     67  64  90 CALM      30.04S
$$

ILZ028>032-037-038-041>044-048-051>054-059>061-050600-
CENTRAL ILLINOIS

CITY           SKY/WX    TMP DP  RH WIND       PRES   REMARKS
PONTIAC        CLEAR     65  63  92 CALM      30.04F
BLOOMINGTON    CLEAR     68  63  84 S3        30.06S
DECATUR        CLEAR     64  61  90 CALM      30.05R
PEORIA         CLEAR     68  62  81 CALM      30.03S HAZE
LACON*         CLEAR     67  60  80 CALM      30.02F
LINCOLN*       CLEAR     66  62  88 CALM      30.05R
SPRINGFIELD    CLEAR     70  63  78 SE3       30.04R HAZE
TAYLORVILLE    CLEAR     63  61  94 CALM      30.05R FOG
$$

ILZ033-039-045-046-055>057-062-063-050600-
EAST-CENTRAL ILLINOIS

CITY           SKY/WX    TMP DP  RH WIND       PRES   REMARKS
CHAMPAIGN      CLEAR     63  60  90 CALM      30.05S
DANVILLE*      CLEAR     61  60  96 CALM      30.03S FOG
RANTOUL*       CLEAR     67  64  91 CALM      30.05S
MATTOON        PTCLDY    66  62  87 CALM      30.05R
PARIS*         PTCLDY    62  61  97 CALM      30.06R
$$

ILZ079-100>102-050600-
SOUTHWEST ILLINOIS

CITY           SKY/WX    TMP DP  RH WIND       PRES   REMARKS
ALTON          CLEAR     65  65 100 CALM      30.04R FOG
BELLEVILLE     CLEAR     67  67 100 CALM      30.03R
CAHOKIA*       CLEAR     69  65  86 CALM      30.03R
SPARTA*        PTCLDY    69  65  86 CALM      30.04S
$$

ILZ064>066-069>071-074>076-080>082-084>086-088>090-092>094-050600-
SOUTH-CENTRAL ILLINOIS

CITY           SKY/WX    TMP DP  RH WIND       PRES   REMARKS
CARBONDALE     MOCLDY    71  68  90 CALM      30.03S FOG
CAIRO*         MOCLDY    71  71  99 CALM      30.02S FOG
EFFINGHAM*     PTCLDY    66  63  90 CALM      30.06S FOG
MARION         MOCLDY    68  68 100 CALM      30.04S FOG
MT. VERNON       N/A     64  61  88 CALM      30.05S VSB 3/4
CENTRALIA*     PTCLDY    66  64  91 CALM      30.04S FOG
SALEM*         PTCLDY    67  65  91 CALM      30.05S
$$

ILZ067-068-072-073-078-083-087-091-050600-
SOUTHEAST ILLINOIS

CITY           SKY/WX    TMP DP  RH WIND       PRES   REMARKS
LAWRENCEVILLE  MOCLDY    69  66  90 NE6       30.04R
FLORA*         MOCLDY    67  66  97 CALM      30.05R FOG
FAIRFIELD*     MOCLDY    68  67  97 CALM      30.03S FOG
HARRISBURG*    CLOUDY    69  69 100 CALM      30.04S FOG
ROBINSON*      PTCLDY    67  65  96 CALM      30.05S FOG
CARMI*         CLOUDY    70  65  84 NW3       30.02S HAZE
$$

ABBREVIATIONS USED IN REMARKS
   TC - TEMPERATURE IN CELSIUS
  WCI - WIND CHILL INDEX
   HX - HEAT INDEX
  VSB - VISIBILITY
$$




USA.gov is the U.S. government's official web portal to all federal, state and local government web resources and services.